Volver al catálogo

COSMOS 2251 DEB

ActivoLEO
NORAD 37959·DEBRIS·🇷🇺 Russia

Lanzado Jun 16, 1993 desde Plesetsk Cosmodrome

Loading…

Próximos Pases (próximas 24 horas)

TLE

ActualizadoSource: Space-Track

Época: Sep 13, 2026, 23:48 UTC

1 37959U 93036BPJ 26256.99226293  .00001958  00000-0  40949-3 0  9999
2 37959  74.0063 251.7373 0058417 323.2442  67.3593 14.59471810841419

Sigue COSMOS 2251 DEB en tiempo real con AllMySat

Download on the App Store